EW9174 Weather Reports


time (UTC)temp
C
wind
direction
speed
KPH
gust
KPH
rain 1hr
cm
rain 24hr
cm
rain mn
cm
humidity
%
barometer
mb
20260510213018 21 84 0.0 3.2 0.00 0.03 0.03 47 1015.8
20260510211517 21 84 0.0 3.2 0.00 0.03 0.03 44 1016.0
20260510210016 21 92 0.0 3.2 0.00 0.03 0.03 45 1016.0
20260510204514 21 104 0.0 3.2 0.00 0.03 0.03 47 1016.0
20260510203013 20 108 0.0 3.2 0.00 0.03 0.03 49 1016.2
20260510201512 21 108 0.0 6.4 0.00 0.03 0.03 44 1016.3
20260510200010 21 123 0.0 3.2 0.00 0.03 0.03 48 1016.3
20260510194506 20 92 0.0 4.8 0.00 0.03 0.03 51 1016.3
20260510193004 19 125 0.0 4.8 0.00 0.03 0.03 50 1016.4
20260510191504 19 118 0.0 3.2 0.00 0.03 0.03 53 1016.5
20260510190104 18 119 0.0 3.2 0.00 0.03 0.03 57 1016.6
20260510184600 18 123 0.0 4.8 0.00 0.03 0.03 56 1016.7
20260510183057 18 136 0.0 3.2 0.00 0.03 0.03 57 1016.7
20260510181606 18 138 0.0 1.6 0.00 0.03 0.03 59 1016.9
20260510180056 17 130 0.0 3.2 0.00 0.03 0.03 64 1017.1
20260510174547 17 130 0.0 3.2 0.00 0.03 0.03 64 1017.1
20260510173045 16 132 0.0 3.2 0.00 0.03 0.03 66 1017.3
20260510171548 15 77 0.0 3.2 0.00 0.03 0.03 69 1017.3
20260510170049 15 76 0.0 3.2 0.00 0.03 0.03 69 1017.2
20260510164536 15 76 0.0 3.2 0.00 0.03 0.03 70 1017.2
20260510163031 15 36 0.0 1.6 0.00 0.03 0.03 71 1017.2
20260510161527 13 36 0.0 3.2 0.00 0.03 0.03 78 1017.1
20260510160024 13 35 0.0 0.0 0.00 0.03 0.03 79 1017.2
20260510154623 12 35 0.0 1.6 0.00 0.03 0.03 82 1017.3
20260510153034 12 35 0.0 1.6 0.00 0.03 0.03 83 1017.2
20260510151528 12 35 0.0 1.6 0.00 0.03 0.03 84 1017.1
20260510150019 11 35 0.0 0.0 0.00 0.03 0.03 84 1017.2
20260510144518 11 35 0.0 0.0 0.00 0.03 0.03 84 1017.2
20260510143021 11 35 0.0 0.0 0.00 0.03 0.03 84 1017.1
20260510141516 11 35 0.0 0.0 0.00 0.03 0.03 86 1017.0
20260510140016 11 35 0.0 0.0 0.00 0.03 0.03 88 1016.8
20260510134513 10 35 0.0 0.0 0.00 0.03 0.03 89 1016.7
20260510133011 10 35 0.0 0.0 0.00 0.03 0.03 89 1016.5
20260510131511 10 36 0.0 3.2 0.00 0.03 0.03 89 1016.3
20260510130025 10 59 0.0 0.0 0.00 0.03 0.03 90 1016.2
20260510124507 10 59 0.0 0.0 0.00 0.03 0.03 90 1016.2
20260510123007 10 59 0.0 0.0 0.00 0.03 0.03 90 1016.1
20260510121506 10 59 0.0 0.0 0.00 0.03 0.03 89 1015.9
20260510120023 10 59 0.0 0.0 0.00 0.03 0.03 90 1015.8
20260510114512 10 59 0.0 0.0 0.00 0.03 0.03 90 1015.7
20260510113003 10 59 0.0 0.0 0.00 0.03 0.03 90 1015.6
20260510111503 10 59 0.0 1.6 0.00 0.03 0.03 90 1015.7
20260510110005 10 59 0.0 0.0 0.03 0.03 0.03 89 1015.7
20260510104501 10 59 0.0 1.6 0.03 0.03 0.03 89 1015.8
20260510103100 10 59 0.0 3.2 0.03 0.03 0.03 89 1016.0
20260510101558 10 59 0.0 3.2 0.03 0.03 0.03 89 1015.9
20260510094555 10 59 0.0 4.8 0.00 0.00 0.00 87 1015.8
20260510093102 10 57 0.0 4.8 0.00 0.00 0.00 87 1015.7
20260510091552 10 51 1.6 6.4 0.00 0.00 0.00 86 1015.6
20260510090051 11 51 0.0 6.4 0.00 0.00 0.00 85 1015.6
20260510084549 11 57 0.0 4.8 0.00 0.00 0.00 83 1015.6
20260510083058 11 57 0.0 4.8 0.00 0.00 0.00 83 1015.2
20260510081545 11 54 0.0 4.8 0.00 0.00 0.00 83 1014.9
20260510080049 11 55 0.0 4.8 0.00 0.00 0.00 83 1014.7
20260510074543 11 66 0.0 6.4 0.00 0.00 0.00 82 1014.9
20260510073040 11 64 0.0 6.4 0.00 0.00 0.00 81 1014.9
20260510071540 11 66 0.0 6.4 0.00 0.00 0.00 78 1015.0
20260510070036 12 100 0.0 4.8 0.00 0.00 0.00 76 1014.5
20260510064535 12 53 0.0 9.7 0.00 0.00 0.00 72 1014.7
20260510063028 12 75 3.2 12.9 0.00 0.00 0.00 68 1014.4
20260510061525 12 19 4.8 12.9 0.00 0.00 0.00 66 1014.1
20260510060026 12 57 1.6 12.9 0.00 0.00 0.00 66 1013.9
20260510054520 12 38 1.6 16.1 0.00 0.00 0.00 64 1012.9
20260510053022 13 59 4.8 22.5 0.00 0.00 0.00 62 1011.8
20260510051515 13 68 3.2 22.5 0.00 0.00 0.00 60 1011.6
20260510050016 14 73 6.4 19.3 0.00 0.00 0.00 58 1011.3
20260510044516 14 55 8.0 25.7 0.00 0.00 0.00 56 1011.0
20260510043008 15 115 4.8 30.6 0.00 0.00 0.00 55 1010.3
20260510041512 15 67 4.8 24.1 0.00 0.00 0.00 51 1009.8
20260510040004 17 70 4.8 25.7 0.00 0.00 0.00 47 1009.2
20260510034600 17 56 4.8 19.3 0.00 0.00 0.00 43 1008.3
20260510033126 18 75 0.0 3.2 0.00 0.00 0.00 40 1006.6
20260510031556 18 77 0.0 1.6 0.00 0.00 0.00 39 1006.3
20260510030056 18 77 0.0 0.0 0.00 0.00 0.00 38 1005.9
20260510024604 19 77 0.0 1.6 0.00 0.00 0.00 36 1005.4
20260510023055 20 76 0.0 1.6 0.00 0.00 0.00 34 1004.9
20260510021555 20 76 0.0 1.6 0.00 0.00 0.00 34 1004.7
20260510020057 21 76 0.0 1.6 0.00 0.00 0.00 32 1004.3
20260510014554 21 76 0.0 1.6 0.00 0.00 0.00 30 1003.8
20260510013053 22 76 0.0 3.2 0.00 0.00 0.00 26 1003.9
20260510011553 22 56 1.6 11.3 0.00 0.00 0.00 26 1004.8
20260510010053 22 47 0.0 8.0 0.00 0.00 0.00 31 1004.9
20260510004552 22 63 0.0 3.2 0.00 0.00 0.00 30 1004.7
20260510003102 22 55 1.6 8.0 0.00 0.00 0.00 30 1004.1
20260510001550 23 74 1.6 6.4 0.00 0.00 0.00 28 1004.0
20260510000053 24 59 0.0 3.2 0.00 0.00 0.00 21 1003.8
20260509234551 24 35 1.6 9.7 0.00 0.00 0.00 20 1002.9
20260509233048 23 5 4.8 14.5 0.00 0.00 0.00 20 1003.0
20260509231553 24 80 4.8 22.5 0.00 0.00 0.00 20 1002.3
20260509230052 24 65 0.0 4.8 0.00 0.00 0.00 22 1002.2
20260509224556 24 80 0.0 4.8 0.00 0.00 0.00 21 1002.2
20260509223051 25 118 0.0 6.4 0.00 0.00 0.00 21 1002.0
20260509221546 26 86 1.6 4.8 0.00 0.00 0.00 19 1001.3
20260509220046 26 75 1.6 4.8 0.00 0.00 0.00 19 1001.4
20260509214545 27 51 0.0 6.4 0.00 0.00 0.00 16 1001.3